Regional Weather Roundup
Issued by NWS

Home | Current Version | Previous Version | Text Only | Print | Product List | Glossary Off
Versions: 1 2 3 4 5 6 7 8 9 10 11 12 13 14 15 16 17 18 19 20 21 22 23 24 25 26 27 28 29 30 31 32 33 34 35 36 37 38 39 40 41 42 43 44 45 46 47 48 49 50

000
ASUS43 KLOT 192304
RWRIL

ILLINOIS REGIONAL WEATHER ROUNDUP
NATIONAL WEATHER SERVICE CHICAGO/ROMEOVILLE IL
600 PM CDT TUE SEP 19 2017

NOTE: "FAIR" INDICATES FEW OR NO CLOUDS BELOW 12,000 FEET WITH NO
SIGNIFICANT WEATHER AND/OR OBSTRUCTIONS TO VISIBILITY.

* THESE STATIONS ARE NOT UNDER NWS QUALITY CONTROL. THEY ALSO MAY NOT
  REPORT WEATHER SUCH AS PRECIPITATION OR FOG.

ILZ001-002-007-009-015-016-024-200000-
NORTHWEST ILLINOIS

CITY           SKY/WX    TMP DP  RH WIND       PRES   REMARKS
MOLINE         SUNNY     80  64  58 SE9       29.84F HX  82
STERLING*        N/A     77  66  68 S5        29.88F
SAVANNA*       SUNNY     79  65  62 SE7       29.86F HX  81
$$

ILZ003-004-008-010-011-017-018-200000-
NORTH CENTRAL ILLINOIS

CITY           SKY/WX    TMP DP  RH WIND       PRES   REMARKS
ROCKFORD       PTCLDY    78  64  61 E13       29.89F HX  80
FREEPORT*      SUNNY     77  63  62 E3        29.90F
ROCHELLE*      CLOUDY    78  65  62 E5        29.89S HX  80
DE KALB*       MOCLDY    76  64  66 E12       29.90F
PERU*          SUNNY     76  63  62 S5        29.89S
$$

ILZ005-006-012>014-019>023-200000-
NORTHEAST ILLINOIS

CITY           SKY/WX    TMP DP  RH WIND       PRES   REMARKS
CHICAGO-OHARE  PTCLDY    74  62  66 E10       29.91F
CHICAGO-MIDWAY PTCLDY    72  64  76 NE12      29.91F
AURORA         PTCLDY    77  64  64 E8        29.90F
LANSING*       CLEAR     71  66  83 E8        29.92S
JOLIET*        MOCLDY    78  64  62 E8        29.89F HX  80
WAUKEGAN       MOCLDY    68  65  90 NE8       29.92F FOG
DUPAGE AIRPORT CLEAR     75  62  64 E10       29.89F
KANKAKEE*      CLEAR     77  65  65 NE3       29.90F
WHEELING       CLEAR     72  66  81 NE7       29.93F
MORRIS*        MOCLDY    76  65  67 E7        29.88S
ROMEOVILLE*    PTCLDY    75  61  61 E10       29.90F
NORTHERLY ISL    N/A     68  64  87 NE10        N/A
$$

LMZ740>746-200000-
SOUTHERN LAKE MICHIGAN

STATION/POSITION SKY/WX   TEMP    WIND        PRES    VSBY  WAVE
                          AIR SEA DIR/SP/G                  HT/PER
                          (F)     (DEG/KT/KT) (MB)    (MI)  (FT/S)
SOUTHERN BUOY              68 69   20/  6/  6 1013.7          1/ 4
WILMETTE HARBOR            68 69   50/ 10/ 12   N/A           1/ 3
HARRISON CRIB              69      50/ 12/ 13   N/A
CALUMET HARBOR             69      20/  8/ 12 1012.7F
BURNS HARBOR               69      30/ 11/ 12 1013.5F
MICHIGAN CITY              68      20/ 12/ 13   N/A
MICHIGAN CITY 6N           69 69   40/ 10/ 14   N/A           1/ 3
ST. JOSEPH                 69 69   30/  6/  8 1013.2F         1/ 2
$$

ILZ025>027-034>036-040-047-049-050-058-095>099-200000-
WEST-CENTRAL ILLINOIS

CITY           SKY/WX    TMP DP  RH WIND       PRES   REMARKS
QUINCY         SUNNY     83  66  56 SE10      29.83F HX  85
MACOMB*        SUNNY     80  65  61 SE6       29.88S HX  82
JACKSONVILLE*  SUNNY     83  64  51 SE3       29.85F HX  84
PITTSFIELD*    SUNNY     83  67  58 SE5       29.85F HX  86
$$

ILZ028>032-037-038-041>044-048-051>054-059>061-200000-
CENTRAL ILLINOIS

CITY           SKY/WX    TMP DP  RH WIND       PRES   REMARKS
PONTIAC        CLEAR     80  65  59 CALM      29.90S HX  82
BLOOMINGTON    MOSUNNY   79  64  60 S3        29.90F HX  81
DECATUR        SUNNY     82  66  58 E3        29.88F HX  84
PEORIA         SUNNY     79  66  64 SE6       29.88S HX  81
LACON*         SUNNY     77  66  67 CALM      29.88F
LINCOLN*       SUNNY     82  67  59 CALM      29.87F HX  85
SPRINGFIELD    SUNNY     85  65  51 E6        29.86F HX  86
TAYLORVILLE    SUNNY     83  63  49 CALM      29.87S HX  84
$$

ILZ033-039-045-046-055>057-062-063-200000-
EAST-CENTRAL ILLINOIS

CITY           SKY/WX    TMP DP  RH WIND       PRES   REMARKS
CHAMPAIGN      CLEAR     81  62  52 W3        29.90F HX  82
RANTOUL*       PTCLDY    80  67  64 CALM      29.90F HX  82
MATTOON        CLEAR     80  68  66 CALM      29.88S HX  83
$$

ILZ079-100>102-200000-
SOUTHWEST ILLINOIS

CITY           SKY/WX    TMP DP  RH WIND       PRES   REMARKS
CAHOKIA*       SUNNY     90  64  42 E5        29.84F HX  91
SPARTA*        SUNNY     86  67  52 S5        29.88S HX  88
$$

ILZ064>066-069>071-074>076-080>082-084>086-088>090-092>094-200000-
SOUTH-CENTRAL ILLINOIS

CITY           SKY/WX    TMP DP  RH WIND       PRES   REMARKS
CARBONDALE     SUNNY     84  71  65 CALM      29.87F HX  89
CAIRO*         SUNNY     84  74  70 E5        29.87S HX  91
EFFINGHAM*     CLEAR     86  64  48 NW6       29.89S HX  87
MARION         MOSUNNY   88  66  48 W6        29.89S HX  90
CENTRALIA*     SUNNY     87  67  50 CALM      29.87S HX  89
SALEM*         SUNNY     86  64  47 CALM      29.88S HX  87
METROPOLIS*    HVY RAIN  86  68  56 CALM      29.89S HX  89
$$

ILZ067-068-072-073-078-083-087-091-200000-
SOUTHEAST ILLINOIS

CITY           SKY/WX    TMP DP  RH WIND       PRES   REMARKS
LAWRENCEVILLE  PTCLDY    82  69  64 S7        29.89S HX  85
FLORA*         PTCLDY    85  67  53 S6        29.88S HX  88
FAIRFIELD*     CLEAR     85  66  52 CALM      29.87S HX  87
HARRISBURG*    MOSUNNY   86  68  54 CALM      29.89S HX  89
ROBINSON*      PTCLDY    81  70  68 E5        29.89S HX  84
CARMI*         PTCLDY    83  70  64 SE6       29.89S HX  87
$$

ABBREVIATIONS USED IN REMARKS
   TC - TEMPERATURE IN CELSIUS
  WCI - WIND CHILL INDEX
   HX - HEAT INDEX
  VSB - VISIBILITY
$$





USA.gov is the U.S. government's official web portal to all federal, state and local government web resources and services.